Miscellaneous Local Product
Issued by NWS Hastings, NE

Home | Current Version | Previous Version | Text Only | Print | Product List | Glossary On
Versions: 1 2 3 4 5 6 7 8 9 10 11 12 13 14 15 16 17 18 19 20 21 22 23 24 25 26 27 28 29 30 31 32 33 34 35 36 37 38 39 40 41 42 43 44 45 46 47 48 49 50
000
AXUS43 KGID 222002
MISGRI

GID CWA HOURLY WEATHER ROUNDUP
NATIONAL WEATHER SERVICE HASTINGS NE
300 PM CDT FRI AUG 22 2014

NOTE: "FAIR" INDICATES FEW OR NO CLOUDS BELOW 12,000 FEET WITH NO
SIGNIFICANT WEATHER AND/OR OBSTRUCTIONS TO VISIBILITY.

...SOUTH CENTRAL NEBRASKA...

CITY           SKY/WX    TMP DP  RH WIND       PRES   REMARKS
GRAND ISLAND   MOSUNNY   87  73  62 NE10      29.95F HX  94
HASTINGS       MOSUNNY   84  70  62 E12       29.94F
KEARNEY        PTSUNNY   84  73  70 N10       29.97S HX  91
ORD            PTSUNNY   87  70  56 E7        29.97R HX  92
YORK           MOSUNNY   84 N/A N/A NE8       29.93F
AURORA         MOSUNNY   86  77  74 NE7       29.94F HX  97
LEXINGTON      MOSUNNY   89  69  51 NE12G20   29.97F HX  93
HOLDREGE       MOSUNNY   86  71  59 NE14      29.97S HX  91
HEBRON         PTSUNNY   86  69  55 SE3       29.92S HX  90

...NEBRASKA PANHANDLE...

CITY           SKY/WX    TMP DP  RH WIND       PRES   REMARKS
CHADRON        CLOUDY    72  59  63 E6        30.05S
ALLIANCE       CLOUDY    79  55  43 S12G21    30.07R
SCOTTSBLUFF    CLOUDY    76  55  48 E10       30.06F
SIDNEY         TSTM      62  60  93 W5        30.12F

...WESTERN AND NORTH CENTRAL NEBRASKA...

CITY           SKY/WX    TMP DP  RH WIND       PRES   REMARKS
VALENTINE      CLOUDY    78  62  57 SW5       30.03F
AINSWORTH      LGT RAIN  77  63  61 NW3       30.03F
ONEILL         PTSUNNY   82  70  66 NE6       30.01R
BROKEN BOW     PTSUNNY   85  73  67 N13       29.99F HX  91
IMPERIAL       PTSUNNY   84  57  39 N13       30.04S
NORTH PLATTE   PTSUNNY   84  61  45 NE10      30.00F
MCCOOK         MOSUNNY   92  64  39 NE18G25   29.97F HX  93

...EASTERN NEBRASKA...

CITY           SKY/WX    TMP DP  RH WIND       PRES   REMARKS
NORFOLK        MOSUNNY   88  71  57 E9        29.94F HX  94
SO SIOUX CITY  SUNNY     90  73  57 VRB5      29.93F HX  98
TEKAMAH        LGT RAIN  87  78  74 NE8       29.91F HX 100
COLUMBUS       MOSUNNY   90  73  58 E7        29.93F HX  98
ALBION         MOSUNNY   87  70  56 NE9       29.96S HX  91
OMAHA EPPLEY   PTSUNNY   91  76  61 N9        29.89F HX 103
OFFUTT AFB     MOSUNNY   90  79  70 E7        29.90F HX 105
MILLARD        MOSUNNY   90  75  61 CALM      29.89F HX 100
LINCOLN        PTSUNNY   91  74  57 NE8       29.90F HX 100
NEBRASKA CITY  CLOUDY    81  74  81 SE10      29.93R
BEATRICE       CLOUDY    82  73  73 SE5       29.93R
FALLS CITY     TSTM      78  74  87 VRB6      29.93F FOG

...NORTHERN KANSAS...

CITY           SKY/WX    TMP DP  RH WIND       PRES   REMARKS
GOODLAND       PTSUNNY   87  64  46 E20G28    30.02F
HILL CITY      SUNNY     93  64  38 E16G22    29.93F HX  94
NORTON         CLEAR     93  57  29 N13G23    29.94F HX  92
PHILLIPSBURG   SUNNY     95  63  34 NE12      29.90F HAZE    HX  96
SMITH CENTER   MOSUNNY   90  72  55 E12       29.92S HX  96
BELOIT         SUNNY     90  75  62 NE5       29.88F HX 100
HAYS           SUNNY     97  66  36 SE10G20   29.90F HX 100
RUSSELL        SUNNY     97  66  36 E7        29.88F HX 100
CONCORDIA      MOSUNNY   88  75  65 SE12      29.90F HX  97
SALINA         CLOUDY    94  71  47 SE13      29.89F HX 101
TOPEKA         PTSUNNY   92  71  50 SW14G21   29.91S HX  98



USA.gov is the U.S. government's official web portal to all federal, state and local government web resources and services.